Location: Nelson
(41.2830°S, 173.2830°E)
Time: 00:28:49
(UTC+12:00)

ATLAS CENTAUR R/B - Visible Passes

Search period start: 22 September 2021 00:00
Search period end: 02 October 2021 01:00
Orbit: 459 x 683 km, 64.7° (Epoch: 15 September)

Date Brightness Start Highest point End Pass type
(mag) Time Alt. Az. Time Alt. Az. Time Alt. Az.
28 Sep 4.3 06:07:09 10° SSE 06:08:13 11° SE 06:09:17 10° SE visible
29 Sep 4.1 06:08:03 10° S 06:10:20 15° SE 06:12:34 10° E visible
30 Sep 3.8 06:09:26 10° S 06:12:24 21° SE 06:15:15 10° E visible
01 Oct 3.1 06:11:00 10° SSW 06:14:24 30° SE 06:17:39 10° ENE visible
